Location: Feura Bush
(42.5779°N, 73.8787°W)
Time: 01:35:55
(UTC+00:00)

ACS3 Solar Sail - Pass Details

Date: 11 October 2024
Orbit: 961 x 1022 km, 97.5° (Epoch: 03 November)

Event Time Altitude Azimuth Distance (km) Brightness Sun altitude
Exits shadow 23:19:22 15° 93° (E) 2,448 3.2 -11.9°
Maximum altitude 23:22:16 21° 61° (ENE) 2,150 3.1 -12.5°
Drops below altitude 10° 23:26:46 10° 16° (NNE) 2,838 4.1 -13.3°
Sets 23:29:55 0° 1° (N) 3,793 4.9 -13.9°
